Printer-friendly version

IAU Minor Planet Center

Minor Planet Center

MPEC 2003-X51 : 2003 XV10

The following Minor Planet Electronic Circular may be linked-to from your own Web pages, but must not otherwise be redistributed electronically.


Read MPEC 2003-X50 Read MPEC 2003-X52


M.P.E.C. 2003-X51                                Issued 2003 Dec. 13, 00:40 UT

     The Minor Planet Electronic Circulars contain information on unusual
         minor planets and routine data on comets.  They are published
   on behalf of Commission 20 of the International Astronomical Union by the
          Minor Planet Center, Smithsonian Astrophysical Observatory,
                          Cambridge, MA 02138, U.S.A.

         Supported in part by the Steven and Michele Kirsch Foundation
             Prepared using the Tamkin Foundation Computer Network

                              MPC@CFA.HARVARD.EDU
          URL http://cfa-www.harvard.edu/iau/mpc.html  ISSN 1523-6714

                                   2003 XV10

Observations:
     K03X10V* C2003 12 11.07154 21 17 03.32 +74 20 16.6          18.8   EX051704
     K03X10V  C2003 12 11.08461 21 17 36.56 +74 20 57.6          18.9   EX051704
     K03X10V  C2003 12 11.09739 21 18 09.02 +74 21 36.6          19.1   EX051704
     K03X10V  C2003 12 11.11027 21 18 42.39 +74 22 16.8          19.4   EX051704
     K03X10V  C2003 12 11.12305 21 19 14.77 +74 22 54.8          18.7   EX051704
     K03X10V  C2003 12 12.06097 22 00 23.46 +74 57 27.6          19.1   EX051704
     K03X10V  C2003 12 12.07409 22 00 57.08 +74 57 42.9          19.6   EX051704
     K03X10V  C2003 12 12.08705 22 01 30.72 +74 57 57.5          19.5   EX051704
     K03X10V  C2003 12 12.92333 22 37 40.49 +75 03 23.9          18.4 R EX051176
     K03X10V  C2003 12 12.92439 22 37 43.20 +75 03 23.4          18.4 R EX051176
     K03X10V  C2003 12 12.92541 22 37 45.81 +75 03 23.0          18.5 R EX051176
     K03X10V  C2003 12 12.92641 22 37 48.37 +75 03 22.6          18.3 R EX051176
     K03X10V  C2003 12 12.92737 22 37 50.82 +75 03 22.2          18.5 R EX051176

Observer details:
176 Observatori Astronomic de Consell.  Observers A. Lopez, R. Pacheco,
    J. Forteza.  0.41-m f/4 reflector + CCD.
704 Lincoln Laboratory ETS, New Mexico.  Observers M. Blythe, F. Shelly,
    M. Bezpalko, R. Huber, L. Manguso, D. Torres, R. Kracke, M. McCleary,
    H. Stange, A. Milner.  Measurers J. Stuart, R. Sayer, J. Evans, J. Kommers.
    1.0-m f/2.15 reflector + CCD.

Orbital elements:
2003 XV10
Epoch 2003 Dec. 7.0 TT = JDT 2452980.5                  MPC
M  30.46002              (2000.0)            P               Q
n   0.59351036     Peri.  321.14701     +0.80167466     +0.59771299
a   1.4023309      Node     2.18858     -0.48722182     +0.66068770
e   0.6689067      Incl.   11.39394     -0.34631292     +0.45412657
P   1.66           H   19.7           G   0.15
From 13 observations 2003 Dec. 11-12.

Ephemeris:
2003 XV10                a,e,i = 1.40, 0.67, 11                  q = 0.4643
Date    TT    R. A. (2000) Decl.     Delta      r     Elong.  Phase     V
2003 12 07    18 58.54   +66 19.6    0.190    1.010    92.0    77.2    18.8
2003 12 17    00 51.3    +71 55.8    0.259    1.129   117.9    50.4    18.9
2003 12 27    02 43.62   +60 19.4    0.366    1.241   127.6    38.9    19.5
2004 01 06    03 21.42   +52 23.5    0.492    1.345   128.4    35.0    20.2
2004 01 16    03 44.83   +47 11.6    0.633    1.443   124.9    34.0    20.9
2004 01 26    04 04.00   +43 36.7    0.786    1.534   119.7    33.9    21.5
2004 02 05    04 21.80   +41 02.4    0.948    1.619   113.7    33.9    22.0

Timothy B. Spahr             (C) Copyright 2003 MPC           M.P.E.C. 2003-X51

Read MPEC 2003-X50 Read MPEC 2003-X52


Our Web policy. Index to the CBAT/MPC/ICQ pages.


Valid HTML 4.01!